Location: Bégole
(43.1574°N, 0.3291°E)
Time: 13:26:46
(UTC+00:00)

SL-16 R/B - Pass Details

Date: 28 January 2023
Orbit: 842 x 846 km, 71.0° (Epoch: 19 March)

Event Time Altitude Azimuth Distance (km) Brightness Sun altitude
Rises 18:11:36 0° 172° (S) 3,383 5.4 -12.3°
Reaches altitude 10° 18:14:19 10° 161° (SSE) 2,453 4.6 -12.8°
Maximum altitude 18:19:05 29° 103° (ESE) 1,501 3.0 -13.6°
Enters shadow 18:22:03 19° 59° (ENE) 1,933 3.5 -14.1°
